Weather History for Newburgh, NY

Change the Weather History Date:

Thursday, March 14, 2013

  Actual Average Record
Temperature  
Mean Temperature 30 °F -  
Max Temperature 35 °F 42 °F 81 °F (1990)
Min Temperature 24 °F 25 °F 12 °F (1993)
Degree Days  
Heating Degree Days 36    
Moisture  
Dew Point 13 °F    
Average Humidity 51    
Maximum Humidity 75    
Minimum Humidity 26    
Precipitation  
Precipitation 0.00 in - - ()
Sea Level Pressure  
Sea Level Pressure 29.89 in    
Wind  
Wind Speed 20 mph (NW)    
Max Wind Speed 28 mph    
Max Gust Speed 40 mph    
Visibility 15 miles    
Events      
Averages and records for this station are not official NWS values.
T = Trace of Precipitation, MM = Missing Value Source: NWS Daily Summary

Daily Weather History Graph

Daily Weather History Graph

Search for Another Location

Airport:

Trip Planner

Search our weather history database for the weather conditions in past years. The results will help you decide how hot, cold, wet, or windy it might be!

Date:

Astronomy

Mar. 14, 2013 Rise Set
Actual Time 7:09 AM EDT 7:02 PM EDT
Civil Twilight 6:41 AM EDT 7:29 PM EDT
Nautical Twilight 6:09 AM EDT 8:01 PM EDT
Astronomical Twilight 5:37 AM EDT 8:34 PM EDT
Moon 8:19 AM EDT (3/14) 10:18 PM EDT (3/14)
Length of Visible Light 12h 47m
Length of Day
11h 52m
Waxing Crescent, 9% of the Moon is Illuminated
Mar 14
Waxing Crescent
Mar 19
First Quarter
Mar 27
Full
Apr 3
Last Quarter
Apr 10
New

Hourly Weather History & Observations

Time (EDT) Temp. Windchill Dew Point Humidity Pressure Visibility Wind Dir Wind Speed Gust Speed Precip Events Conditions
12:45 AM 32.0 °F 19.8 °F 24.8 °F 75% 29.87 in 10.0 mi WNW 20.7 mph 28.8 mph N/A   Mostly Cloudy
2:45 AM 32.0 °F 22.1 °F 23.0 °F 69% 29.87 in 10.0 mi WNW 13.8 mph 23.0 mph N/A   Overcast
3:45 AM 30.2 °F 18.5 °F 19.4 °F 64% 29.86 in 15.0 mi WNW 17.3 mph 25.3 mph N/A   Partly Cloudy
4:45 AM 28.4 °F 16.2 °F 17.6 °F 64% 29.86 in 20.0 mi WNW 17.3 mph 28.8 mph N/A   Partly Cloudy
5:45 AM 26.6 °F 13.8 °F 15.8 °F 64% 29.87 in 20.0 mi WNW 17.3 mph 28.8 mph N/A   Partly Cloudy
6:45 AM 26.6 °F 12.7 °F 14.0 °F 59% 29.88 in 20.0 mi NW 20.7 mph 32.2 mph N/A   Mostly Cloudy
9:45 AM 24.8 °F 9.6 °F 12.2 °F 59% 29.93 in 20.0 mi NW 23.0 mph 34.5 mph N/A   Mostly Cloudy
10:45 AM 26.6 °F 12.4 °F 12.2 °F 55% 29.92 in 20.0 mi NW 21.9 mph 34.5 mph N/A   Mostly Cloudy
11:45 AM 26.6 °F 14.3 °F 14.0 °F 59% 29.92 in 20.0 mi NW 16.1 mph 34.5 mph N/A   Overcast
12:45 PM 28.4 °F 14.4 °F 15.8 °F 59% 29.91 in 20.0 mi WNW 23.0 mph 32.2 mph N/A   Overcast
1:45 PM 30.2 °F 15.9 °F 14.0 °F 51% 29.89 in 20.0 mi WNW 26.5 mph 40.3 mph N/A   Mostly Cloudy
3:45 PM 33.8 °F 23.2 °F 14.0 °F 44% 29.85 in 20.0 mi NW 17.3 mph 34.5 mph N/A   Scattered Clouds
4:45 PM 35.6 °F 24.5 °F 12.2 °F 38% 29.84 in 20.0 mi WNW 20.7 mph 32.2 mph N/A   Scattered Clouds
5:45 PM 35.6 °F 23.0 °F 3.2 °F 26% 29.84 in 10.0 mi WNW 27.6 mph 36.8 mph N/A   Mostly Cloudy
6:45 PM 33.8 °F 22.2 °F 5.0 °F 30% 29.86 in 10.0 mi WNW 20.7 mph 32.2 mph N/A   Scattered Clouds
7:45 PM 32.0 °F 18.6 °F 6.8 °F 35% 29.88 in 10.0 mi NW 25.3 mph 34.5 mph N/A   Scattered Clouds
8:45 PM 32.0 °F 18.1 °F 8.6 °F 38% 29.90 in 10.0 mi WNW 27.6 mph 34.5 mph N/A   Mostly Cloudy
9:45 PM 30.2 °F 16.8 °F 8.6 °F 40% 29.91 in 10.0 mi NW 23.0 mph 29.9 mph N/A   Mostly Cloudy
10:45 PM 30.2 °F 18.1 °F 8.6 °F 40% 29.92 in 10.0 mi NW 18.4 mph 36.8 mph N/A   Mostly Cloudy
11:45 PM 28.4 °F 19.1 °F 10.4 °F 47% 29.93 in 10.0 mi NW 10.4 mph 29.9 mph N/A   Mostly Cloudy